DW5338 Weather Reports


Display with metric or nautical units.
time (UTC)temp
F
wind
direction
speed
MPH
gust
MPH
rain 1hr
in
rain 24hr
in
rain mn
in
humidity
%
barometer
mb
20260507003516 36 270 3.0 10.0 0.05 0.28 0.28 78 1017.1
20260507002519 35 0.0 2.0 0.05 0.27 0.27 85 1017.2
20260507001516 34 338 2.0 4.0 0.05 0.26 0.26 89 1017.1
20260507000516 33 113 1.0 4.0 0.06 0.25 0.25 90 1017.1
20260506235539 33 68 1.0 4.0 0.05 0.25 0.24 91 1017.1
20260506234516 32 338 3.0 8.0 0.05 0.24 0.23 90 1016.9
20260506233516 32 23 3.0 8.0 0.05 0.24 0.23 89 1016.9
20260506232519 32 45 2.0 6.0 0.06 0.23 0.22 90 1016.7
20260506230519 32 90 1.0 3.0 0.04 0.20 0.19 88 1016.5
20260506225519 32 45 2.0 4.0 0.05 0.20 0.19 88 1016.5
20260506224516 32 113 1.0 3.0 0.04 0.19 0.18 88 1016.6
20260506223515 31 113 1.0 3.0 0.05 0.19 0.18 87 1016.6
20260506222519 32 68 1.0 4.0 0.03 0.17 0.16 88 1016.8
20260506221519 30 45 2.0 3.0 0.04 0.17 0.16 88 1016.4
20260506220519 30 23 1.0 2.0 0.04 0.16 0.15 90 1016.6
20260506215519 29 113 1.0 3.0 0.03 0.17 0.14 90 1016.7
20260506214536 29 113 1.0 4.0 0.04 0.17 0.14 90 1016.9
20260506213516 29 113 1.0 4.0 0.04 0.16 0.13 90 1016.9
20260506212516 28 68 2.0 6.0 0.04 0.16 0.13 92 1017.0
20260506211516 27 45 3.0 5.0 0.04 0.15 0.12 90 1016.8
20260506210521 28 45 4.0 9.0 0.03 0.14 0.11 89 1017.0
20260506205536 28 23 2.0 6.0 0.03 0.19 0.11 89 1017.0
20260506204516 29 90 2.0 7.0 0.03 0.18 0.10 91 1017.1
20260506203521 27 23 4.0 7.0 0.03 0.17 0.09 88 1016.9
20260506202516 28 45 2.0 5.0 0.04 0.17 0.09 91 1017.2
20260506201516 27 23 3.0 6.0 0.03 0.16 0.08 89 1017.0
20260506200521 28 45 3.0 5.0 0.05 0.16 0.08 88 1017.1
20260506195515 27 68 2.0 5.0 0.06 0.16 0.08 90 1017.3
20260506194516 27 68 2.0 4.0 0.06 0.15 0.07 88 1017.3
20260506193515 27 45 3.0 7.0 0.05 0.14 0.06 88 1017.3
20260506192519 28 90 2.0 6.0 0.04 0.13 0.05 88 1017.3
20260506191519 27 45 2.0 5.0 0.05 0.13 0.05 89 1017.3
20260506190519 29 68 2.0 5.0 0.03 0.11 0.03 88 1017.6
20260506185519 28 68 2.0 6.0 0.02 0.10 0.02 88 1017.5
20260506184519 28 90 1.0 4.0 0.01 0.09 0.01 88 1017.6
20260506183519 28 90 3.0 7.0 0.01 0.09 0.01 86 1017.6
20260506182519 28 68 3.0 9.0 0.01 0.09 0.01 87 1017.7
20260506181519 29 45 4.0 10.0 0.00 0.08 0.00 85 1017.7
20260506180519 28 45 2.0 6.0 0.00 0.08 0.00 88 1017.7
20260506175516 26 90 2.0 5.0 0.00 0.08 0.00 89 1017.5
20260506174536 25 45 3.0 8.0 0.00 0.08 0.00 90 1017.5
20260506173535 25 68 4.0 10.0 0.00 0.08 0.00 89 1017.5
20260506172519 25 23 3.0 10.0 0.00 0.08 0.00 91 1017.5
20260506171539 24 68 2.0 8.0 0.00 0.08 0.00 92 1017.1
20260506170541 23 68 5.0 10.0 0.00 0.08 0.00 91 1017.1
20260506165536 23 68 5.0 10.0 0.00 0.08 0.00 91 1017.0
20260506164515 23 68 5.0 10.0 0.00 0.08 0.00 92 1016.9
20260506163519 23 68 2.0 8.0 0.00 0.08 0.00 93 1016.8
20260506162519 22 23 3.0 6.0 0.00 0.08 0.00 92 1016.5
20260506161515 22 45 3.0 7.0 0.00 0.08 0.00 92 1016.5
20260506160515 22 68 4.0 11.0 0.00 0.08 0.00 92 1016.4
20260506155515 22 68 4.0 9.0 0.00 0.08 0.00 92 1016.2
20260506154519 22 68 3.0 9.0 0.00 0.08 0.00 93 1016.2
20260506153519 22 68 4.0 8.0 0.00 0.08 0.00 93 1016.2
20260506152519 22 68 2.0 7.0 0.00 0.08 0.00 93 1016.1
20260506151515 22 68 3.0 7.0 0.00 0.08 0.00 93 1016.0
20260506150519 22 45 2.0 6.0 0.00 0.08 0.00 93 1015.8
20260506145519 22 68 2.0 5.0 0.00 0.08 0.00 93 1015.9
20260506144519 22 68 4.0 8.0 0.00 0.08 0.00 93 1015.8
20260506143519 22 45 1.0 7.0 0.00 0.08 0.00 93 1015.7
20260506142538 21 68 3.0 7.0 0.00 0.08 0.00 93 1015.6
20260506141519 21 68 2.0 4.0 0.00 0.08 0.00 93 1015.5
20260506140519 21 68 2.0 6.0 0.00 0.08 0.00 93 1015.4
20260506135515 21 45 2.0 5.0 0.00 0.08 0.00 93 1015.4
20260506134515 21 23 3.0 6.0 0.00 0.08 0.00 93 1015.3
20260506133515 22 68 2.0 5.0 0.00 0.08 0.00 94 1015.5
20260506132515 22 68 3.0 7.0 0.00 0.08 0.00 93 1015.4
20260506131515 22 45 2.0 5.0 0.00 0.08 0.00 94 1015.3
20260506130518 22 68 3.0 6.0 0.00 0.08 0.00 94 1015.2
20260506125518 22 68 2.0 6.0 0.00 0.08 0.00 94 1014.6
20260506124518 21 68 2.0 5.0 0.00 0.08 0.00 94 1014.5
20260506123515 21 45 3.0 5.0 0.00 0.08 0.00 94 1014.3
20260506122535 21 45 2.0 7.0 0.00 0.08 0.00 94 1014.1
20260506121518 21 45 3.0 5.0 0.00 0.08 0.00 94 1014.1
20260506120515 21 45 3.0 5.0 0.00 0.08 0.00 94 1014.2
20260506115535 21 45 2.0 4.0 0.00 0.08 0.00 94 1014.2
20260506114515 21 45 2.0 4.0 0.00 0.08 0.00 94 1014.1
20260506113515 21 45 1.0 3.0 0.00 0.08 0.00 94 1014.1
20260506112515 21 45 1.0 3.0 0.00 0.08 0.00 94 1014.2
20260506111515 21 45 1.0 2.0 0.00 0.08 0.00 94 1014.0
20260506110515 21 113 1.0 2.0 0.00 0.08 0.00 94 1014.0
20260506105515 21 90 1.0 3.0 0.00 0.08 0.00 94 1013.9
20260506104515 21 90 1.0 2.0 0.00 0.08 0.00 94 1013.8
20260506103515 21 90 1.0 3.0 0.00 0.08 0.00 94 1013.9
20260506102515 21 68 1.0 2.0 0.00 0.08 0.00 94 1013.9
20260506101515 21 90 1.0 3.0 0.00 0.08 0.00 94 1013.8
20260506100539 21 90 1.0 2.0 0.00 0.08 0.00 94 1014.2
20260506095518 21 0.0 2.0 0.00 0.09 0.00 94 1014.4
20260506094518 21 45 1.0 4.0 0.00 0.09 0.00 94 1014.5
20260506093518 21 68 2.0 4.0 0.00 0.09 0.00 94 1014.4
20260506092518 21 68 2.0 5.0 0.00 0.09 0.00 94 1014.3
20260506091515 22 68 3.0 6.0 0.00 0.09 0.00 94 1014.2
20260506090517 22 68 2.0 4.0 0.00 0.09 0.00 94 1014.1
20260506085517 22 45 3.0 6.0 0.00 0.09 0.00 94 1014.5
20260506084517 22 68 3.0 5.0 0.00 0.09 0.00 94 1014.7
20260506083520 22 68 4.0 7.0 0.00 0.09 0.00 94 1014.7
20260506082520 22 68 3.0 6.0 0.00 0.09 0.00 94 1014.2
20260506081520 22 45 3.0 7.0 0.00 0.09 0.00 93 1014.2
20260506080517 22 45 3.0 9.0 0.00 0.09 0.00 94 1014.0
20260506073520 23 23 1.0 3.0 0.00 0.09 0.00 94 1014.3
20260506072537 23 23 1.0 3.0 0.00 0.09 0.00 94 1014.5
20260506071517 23 68 1.0 3.0 0.00 0.09 0.00 94 1014.1
20260506070520 23 45 1.0 2.0 0.00 0.09 0.00 94 1014.2
20260506061516 23 45 1.0 3.0 0.00 0.09 0.00 94 1014.2
20260506060520 23 45 3.0 5.0 0.00 0.09 0.00 94 1013.9
20260506044540 23 0.0 1.0 0.00 0.09 0.09 94 1013.4
20260506043536 23 68 1.0 2.0 0.00 0.09 0.09 94 1013.3
20260506042516 23 68 1.0 3.0 0.00 0.09 0.09 94 1013.3
20260506041516 23 0.0 2.0 0.00 0.09 0.09 94 1013.3
20260506040516 23 0.0 2.0 0.00 0.09 0.09 94 1013.1
20260506035516 23 0.0 2.0 0.00 0.12 0.09 94 1013.0
20260506034516 23 68 1.0 3.0 0.00 0.12 0.09 94 1012.9
20260506033516 23 68 1.0 3.0 0.00 0.12 0.09 94 1012.9
20260506032536 23 45 1.0 2.0 0.00 0.12 0.09 94 1013.0
20260506031516 23 68 1.0 3.0 0.00 0.12 0.09 94 1012.7
20260506030516 23 0.0 3.0 0.00 0.12 0.09 94 1012.5
20260506025536 23 45 3.0 4.0 0.00 0.28 0.09 94 1012.3
20260506024536 23 68 2.0 4.0 0.00 0.28 0.09 94 1012.2
20260506023516 23 68 2.0 5.0 0.00 0.28 0.09 94 1011.9
20260506022519 23 68 1.0 4.0 0.00 0.28 0.09 94 1011.9
20260506021519 24 68 1.0 4.0 0.00 0.28 0.09 94 1011.6
20260506020519 23 45 1.0 5.0 0.00 0.28 0.09 94 1011.5
20260506015521 24 45 2.0 7.0 0.00 0.32 0.09 94 1011.4
20260506014516 24 45 3.0 5.0 0.00 0.32 0.09 93 1011.2
20260506013516 24 45 3.0 5.0 0.00 0.32 0.09 94 1011.2
20260506012516 24 45 1.0 4.0 0.00 0.32 0.09 94 1011.0
20260506011516 24 45 1.0 3.0 0.00 0.32 0.09 93 1010.9
20260506010516 24 0.0 1.0 0.00 0.32 0.09 93 1011.1
20260506005556 25 45 2.0 3.0 0.00 0.32 0.09 93 1010.9
20260506004519 25 68 1.0 4.0 0.00 0.32 0.09 94 1010.9